Weather History for Butte, MT

Change the Weather History Date:

Friday, January 3, 2014

  Actual Average Record
Temperature  
Mean Temperature 33 °F 18 °F  
Max Temperature 45 °F 31 °F 53 °F (1918)
Min Temperature 21 °F 6 °F -31 °F (1950)
Degree Days  
Heating Degree Days 32 47  
Month to date heating degree days 111 141  
Since 1 July heating degree days 3829 4105  
Cooling Degree Days 0 0  
Month to date cooling degree days 0 0  
Year to date cooling degree days 0 0  
Moisture  
Dew Point 20 °F    
Average Humidity 64    
Maximum Humidity 92    
Minimum Humidity 35    
Precipitation  
Precipitation 0.03 in 0.02 in 0.34 in (1977)
Month to date precipitation 0.03 0.05  
Year to date precipitation 0.03 0.05  
Sea Level Pressure  
Sea Level Pressure 29.78 in    
Wind  
Wind Speed 12 mph (WNW)    
Max Wind Speed 33 mph    
Max Gust Speed 51 mph    
Visibility 6 miles    
Events Snow    
T = Trace of Precipitation, MM = Missing Value Source: NWS Daily Summary

Daily Weather History Graph

Daily Weather History Graph

Search for Another Location

Airport:

Trip Planner

Search our weather history database for the weather conditions in past years. The results will help you decide how hot, cold, wet, or windy it might be!

Date:

Astronomy

Jan. 03, 2014 Rise Set
Actual Time 8:11 AM MST 4:57 PM MST
Civil Twilight 7:37 AM MST 5:31 PM MST
Nautical Twilight 6:59 AM MST 6:09 PM MST
Astronomical Twilight 6:23 AM MST 6:45 PM MST
Moon 9:30 AM MST (1/3) 8:22 PM MST (1/3)
Length of Visible Light 9h 54m
Length of Day
8h 45m
Waxing Crescent, 8% of the Moon is Illuminated
Jan 3
Waxing Crescent
Jan 7
First Quarter
Jan 15
Full
Jan 23
Last Quarter
Jan 30
New

Hourly Weather History & Observations

Time (MST) Temp. Windchill Dew Point Humidity Pressure Visibility Wind Dir Wind Speed Gust Speed Precip Events Conditions
12:53 AM 39.9 °F 35.8 °F 24.1 °F 53% 29.81 in 10.0 mi West 5.8 mph - N/A   Clear
1:53 AM 42.1 °F 37.7 °F 24.1 °F 49% 29.73 in 10.0 mi SW 6.9 mph - N/A   Clear
2:53 AM 39.9 °F 37.8 °F 24.1 °F 53% 29.70 in 10.0 mi Variable 3.5 mph - N/A   Clear
3:53 AM 43.0 °F - 23.0 °F 45% 29.66 in 10.0 mi Calm Calm - N/A   Mostly Cloudy
4:53 AM 45.0 °F 38.9 °F 24.1 °F 44% 29.59 in 10.0 mi SW 12.7 mph 19.6 mph N/A   Overcast
5:53 AM 41.0 °F 33.1 °F 28.9 °F 62% 29.61 in 10.0 mi West 15.0 mph 28.8 mph N/A   Overcast
6:53 AM 37.9 °F 28.9 °F 30.0 °F 73% 29.62 in 10.0 mi WSW 16.1 mph 26.5 mph 0.00 in   Overcast
7:53 AM 36.0 °F 27.1 °F 30.0 °F 79% 29.63 in 9.0 mi WNW 13.8 mph 24.2 mph 0.00 in   Overcast
8:01 AM 35.6 °F 23.2 °F 28.4 °F 75% 29.64 in 2.0 mi West 26.5 mph 36.8 mph 0.00 in Snow Light Snow
8:04 AM 33.8 °F 19.9 °F 28.4 °F 81% 29.64 in 1.0 mi West 31.1 mph 43.7 mph 0.00 in Snow Light Snow
8:12 AM 33.8 °F 19.4 °F 28.4 °F 81% 29.65 in 0.5 mi West 33.4 mph 50.6 mph 0.00 in Snow Snow
8:32 AM 33.8 °F 21.3 °F 26.6 °F 75% 29.64 in 1.0 mi West 24.2 mph 41.4 mph 0.00 in Snow Light Snow
8:36 AM 33.8 °F 21.0 °F 26.6 °F 75% 29.64 in 4.0 mi West 25.3 mph 38.0 mph 0.00 in Snow Light Snow
8:51 AM 33.8 °F 21.9 °F 26.6 °F 75% 29.64 in 6.0 mi West 21.9 mph 32.2 mph 0.00 in Snow Light Snow
8:53 AM 33.1 °F 22.2 °F 27.0 °F 78% 29.66 in 6.0 mi West 17.3 mph 32.2 mph 0.00 in Snow Light Snow
9:53 AM 36.0 °F 28.0 °F 21.0 °F 55% 29.68 in 10.0 mi West 11.5 mph 18.4 mph 0.00 in   Partly Cloudy
10:41 AM 33.8 °F 23.5 °F 15.8 °F 48% 29.69 in 1.2 mi West 16.1 mph 23.0 mph N/A   Haze
10:53 AM 35.1 °F 23.3 °F 15.1 °F 44% 29.69 in 2.0 mi West 23.0 mph 31.1 mph N/A   Haze
11:04 AM 35.6 °F 25.5 °F 15.8 °F 44% 29.70 in 10.0 mi WNW 17.3 mph 29.9 mph N/A   Clear
11:42 AM 33.8 °F 21.9 °F 17.6 °F 52% 29.70 in 10.0 mi WNW 21.9 mph 31.1 mph N/A   Overcast
11:53 AM 33.1 °F 19.1 °F 14.0 °F 46% 29.73 in 10.0 mi NW 29.9 mph 40.3 mph N/A   Overcast
12:53 PM 33.1 °F 20.6 °F 9.0 °F 37% 29.72 in 10.0 mi WNW 23.0 mph 39.1 mph N/A   Clear
1:53 PM 30.9 °F 18.7 °F 14.0 °F 50% 29.75 in 10.0 mi NW 19.6 mph 31.1 mph N/A   Clear
2:53 PM 30.9 °F 16.9 °F 9.0 °F 40% 29.78 in 10.0 mi NW 26.5 mph 38.0 mph N/A   Clear
3:53 PM 30.0 °F 17.5 °F 8.1 °F 40% 29.81 in 10.0 mi NW 19.6 mph 31.1 mph N/A   Partly Cloudy
4:53 PM 28.0 °F 18.6 °F 10.9 °F 49% 29.83 in 10.0 mi WNW 10.4 mph 21.9 mph N/A   Mostly Cloudy
5:53 PM 27.0 °F 15.6 °F 10.9 °F 51% 29.85 in 10.0 mi WNW 13.8 mph 19.6 mph N/A   Overcast
6:53 PM 25.0 °F 18.1 °F 15.1 °F 66% 29.90 in 10.0 mi NNW 5.8 mph - N/A   Scattered Clouds
7:53 PM 24.1 °F 19.7 °F 15.1 °F 69% 29.93 in 10.0 mi NW 3.5 mph - N/A   Mostly Cloudy
8:53 PM 24.1 °F - 16.0 °F 71% 29.95 in 10.0 mi Calm Calm - N/A   Overcast
9:08 PM 24.8 °F 20.5 °F 17.6 °F 74% 29.87 in 5.0 mi WNW 3.5 mph - 0.00 in Snow Light Snow
9:18 PM 24.8 °F 19.1 °F 17.6 °F 74% 29.87 in 1.8 mi NNW 4.6 mph - 0.00 in Snow Light Snow
9:43 PM 21.2 °F 16.4 °F 19.4 °F 93% 29.87 in 1.5 mi NW 3.5 mph - 0.00 in Snow Light Snow
9:53 PM 21.9 °F - 19.0 °F 89% 29.97 in 1.5 mi Calm Calm - 0.00 in Snow Light Snow
10:23 PM 21.2 °F 16.4 °F 19.4 °F 93% 29.88 in 1.0 mi NW 3.5 mph - 0.01 in Snow Light Snow
10:30 PM 21.2 °F 16.4 °F 19.4 °F 93% 29.88 in 0.8 mi WNW 3.5 mph - 0.02 in Snow Light Snow
10:41 PM 21.2 °F 14.9 °F 19.4 °F 93% 29.89 in 1.2 mi NW 4.6 mph - 0.02 in Snow Light Snow
10:53 PM 21.9 °F 17.2 °F 19.9 °F 92% 29.99 in 1.0 mi NW 3.5 mph - 0.02 in Snow Light Snow
11:02 PM 21.2 °F - 19.4 °F 93% 29.89 in 1.5 mi Calm Calm - 0.00 in Snow Light Snow
11:32 PM 21.2 °F 14.9 °F 19.4 °F 93% 29.90 in 3.0 mi NW 4.6 mph - 0.01 in Snow Light Snow
11:44 PM 21.2 °F 13.6 °F 19.4 °F 93% 29.90 in 2.5 mi NW 5.8 mph - 0.01 in Snow Light Snow
11:50 PM 21.2 °F 14.9 °F 19.4 °F 93% 29.90 in 5.0 mi WNW 4.6 mph - 0.01 in Snow Light Snow
11:51 PM 21.0 °F 14.6 °F 18.0 °F 88% 30.01 in 6.0 mi WNW 4.6 mph - 0.01 in Snow Light Snow